#timestamp,LO_Frequency,Hit 
1503169215.3,286047004.4,N
1503169235.1,286047002.2,N
1503169255.9,286047004.2,N
1503169275.7,286047005.9,P
1503169295.5,286046998.5,N
1503169315.4,286046999.3,N
1503169335.2,286046998.1,N
1503169355.0,286046998.4,N
1503169355.9,286046998.4,N
1503169375.8,286046999.3,N
1503169395.6,286046998.5,N
1503169415.4,286046996.8,N
1503169435.3,286046998.0,N
1503169455.1,286046996.1,N
1503169456.0,286046996.1,N
1503169475.8,286046995.2,N
1503169495.7,286046993.5,N
1503169515.5,286046994.1,N
1503169535.3,286046993.2,N
1503169555.2,286046994.1,N
1503169575.9,286046994.1,N
1503169595.7,286046993.5,N
1503169615.5,286046992.9,N
1503169635.4,286046992.9,N
1503169655.2,286046992.5,N
1503169675.0,286046990.5,N
1503169675.9,286046990.5,N
1503169695.8,286046990.5,N
1503169715.6,286046991.4,N
1503169735.5,286046989.4,N
1503169755.3,286046991.4,N
1503169775.1,286046994.8,N
1503169795.9,286046992.7,N
1503169815.7,286046991.1,N
1503169835.5,286046990.4,P
1503169855.4,286046994.9,N
1503169875.2,286046994.9,N
1503169895.0,286046998.0,N
1503169895.9,286046998.0,N
1503169915.8,286046995.2,N
1503169935.6,286046996.7,N
1503169955.4,286046997.3,N
1503169975.2,286046999.2,N
1503169995.1,286046995.1,N
1503169996.0,286046995.1,N
1503170015.8,286046996.8,N
1503170035.6,286046996.9,N
1503170055.5,286046998.0,N
1503170075.3,286046994.5,N
1503170095.1,286046995.2,N
1503170115.9,286046996.3,N
1503170135.7,286046998.0,N
1503170155.5,286046997.9,N
1503170175.4,286046999.4,N
1503170195.2,286047002.5,N
1503170215.0,286047002.4,N
1503170215.9,286047002.4,N
1503170235.8,286047002.0,N
1503170255.6,286047000.8,N
1503170275.4,286047000.0,N
1503170295.3,286046998.2,N
1503170315.1,286047001.5,N
1503170316.0,286047001.5,N
1503170335.8,286047001.6,N
1503170355.6,286047001.5,N
1503170375.5,286047001.8,N
1503170395.3,286047000.2,N
1503170415.1,286047001.2,N
1503170435.9,286046998.6,N
1503170455.7,286047000.8,N
1503170475.5,286047000.3,N
1503170495.4,286047001.8,N
1503170515.2,286047005.6,N
1503170535.0,286047001.8,N
1503170535.9,286047001.8,N
1503170555.8,286047004.2,N
1503170575.6,286047001.5,N
1503170595.4,286047005.0,N
1503170615.3,286047006.4,N
1503170635.1,286047006.9,N
1503170636.0,286047006.9,N
1503170655.8,286047003.1,N
1503170675.7,286047005.8,N
1503170695.5,286047004.6,N
1503170715.3,286047005.8,N
1503170735.1,286047002.1,N
1503170755.9,286047003.3,N
1503170775.7,286047003.3,N
1503170795.5,286047003.6,N
1503170815.4,286047001.4,N
1503170835.2,286047004.3,N
1503170855.0,286047002.9,N
1503170855.9,286047002.9,N
1503170875.8,286047003.3,N
1503170895.6,286047005.6,N
1503170915.4,286047005.1,N
1503170935.3,286047005.5,N
1503170955.1,286047003.1,N
1503170956.0,286047003.1,N
1503170975.8,286047004.4,N
1503170995.7,286047003.8,N
1503171015.5,286047004.0,N
1503171035.3,286047003.5,N
1503171055.2,286047001.7,N
1503171075.9,286047003.6,N
1503171095.7,286047005.3,P
1503171115.6,286046999.7,N
1503171135.4,286047004.1,N
1503171155.2,286047003.3,N
1503171175.1,286047005.4,N
1503171176.0,286047005.4,N
1503171195.8,286047003.8,N
1503171215.6,286047004.1,N
1503171235.5,286047002.6,N
1503171255.3,286047002.4,N
1503171275.1,286047001.1,N
1503171295.8,286047000.2,N
1503171315.7,286046999.8,N
1503171335.5,286047001.6,N
1503171355.3,286047001.5,N
1503171375.2,286047000.3,N
1503171395.9,286046999.2,N
1503171415.7,286047000.8,N
1503171435.6,286047000.8,N
1503171455.4,286046998.2,N
1503171475.2,286047000.9,N
1503171495.1,286047001.0,N
1503171496.0,286047001.0,N
1503171515.8,286047002.7,N
1503171535.6,286047002.7,N
1503171555.4,286047001.5,N
1503171575.3,286047000.0,N
1503171595.1,286046998.4,N
1503171615.8,286047000.8,N
1503171635.7,286046996.9,N
1503171655.5,286046998.5,N
1503171675.3,286046996.9,N
1503171695.2,286046996.1,N
1503171715.9,286046995.2,N
1503171735.7,286046995.0,N
1503171755.6,286046996.7,N
1503171775.4,286046999.2,N
1503171795.2,286046999.1,N
1503171815.1,286046997.1,N
1503171816.0,286046997.1,N
1503171835.8,286046995.7,N
1503171855.6,286046995.6,N
1503171875.4,286046993.6,N
1503171895.3,286046993.8,N
1503171915.1,286046995.5,N
1503171935.8,286046997.6,N
1503171955.7,286046997.9,N
1503171975.5,286046998.0,N
1503171995.3,286046995.0,N
1503172015.2,286046997.5,N
1503172035.9,286046999.4,N
1503172055.7,286046998.9,N
1503172075.6,286046998.0,N
1503172095.4,286046993.7,N
1503172115.2,286047001.2,N
1503172135.1,286047002.8,N
1503172136.0,286047002.8,N
1503172155.8,286046998.5,N
1503172175.6,286047000.7,N
1503172195.5,286047001.5,N
1503172215.3,286046999.7,N
1503172235.1,286047000.3,N
1503172255.8,286047002.2,N
1503172275.7,286047001.7,N
1503172295.5,286047004.3,N
1503172315.3,286047005.8,N
1503172335.2,286047003.0,N
1503172355.0,286047001.6,N
1503172355.9,286047001.6,N
1503172375.7,286046999.9,N
1503172395.6,286046998.1,N
1503172415.4,286047001.8,N
1503172435.2,286047000.2,N
1503172455.1,286047000.1,N
1503172456.0,286047000.1,N
1503172475.8,286047000.5,N
1503172495.6,286047000.5,N
1503172515.5,286047000.4,N
1503172535.3,286047000.8,N
1503172555.1,286046998.6,N
1503172575.9,286046999.3,N
1503172595.7,286046998.3,N
1503172615.5,286046998.8,N
1503172635.4,286046997.4,N
1503172655.2,286046996.9,N
1503172675.0,286046998.8,N
1503172675.9,286046998.8,N
1503172695.8,286046998.2,N
1503172715.6,286046996.8,N
1503172735.4,286046997.6,N
1503172755.2,286046996.1,N
1503172775.1,286046994.9,N
1503172776.0,286046994.9,N
1503172795.8,286046994.6,N
